"Pseudo-MPEC" for A10vq8s

Created 2021 Feb 24 7:07:04 UT using Find_Orb

Click here for an explanation of pseudo-MPECs

 
 Astrometry: 
     A10vq8s  C2021 02 22.31294 10 45 00.72 -13 41 38.4    ~2NM7 18.8 GVNEOCP703
     A10vq8s  C2021 02 22.31823 10 45 00.46 -13 40 52.2    ~2NM7 19.1 GVNEOCP703
     A10vq8s  C2021 02 22.49572710 45 03.48 -13 16 36.0    ~2MDq 18.69oVNEOCPT08
     A10vq8s  C2021 02 22.49895310 45 03.27 -13 16 11.5    ~2MDq 18.93oVNEOCPT08
     A10vq8s  C2021 02 22.53434910 45 00.76 -13 11 45.6    ~2MDq 19.11oVNEOCPT08
     A10vq8s  C2021 02 22.54587410 45 00.10 -13 10 18.9    ~2MDq 18.60oVNEOCPT08
     A10vq8s |C2021 02 232@diq62Be))vZk2:5C'W.j+)eYAOk;mU+elqaAstrometry1Tja4807
     A10vq8s |C2021 02 23[s)pp0'Jd5oprZ)mdt/1*nPve7a?'H-bu62E!9o?(iSrn=GWNQK%807
     A10vq8s |C2021 02 23'jh/xjp`?aMdf35IR%#_QKx(*O-/redacted;VwD`$h1-rkKh2_W807
     A10vq8s pC2021 02 23[k\8P4d,2l6bTrQZq88_IVGurc41@IVWa,EKlWr)sL]F#==oUV1#L01
     A10vq8s pC2021 02 239gPV!;QJrbfX-click7Kdc.8ik^GbU=1here5(iNps_K4jP`R?_-L01
     A10vq8s pC2021 02 23D#K,o:QS;9bX0NG8=Ob64h$Xe0Z^oA\MlhB-?PH28ZBf[4]1QMy?L01
     A10vq8s pC2021 02 23RX]qhq/88ke+3-l,]nrP):d(TuY'uR3Si*u`m3y8R^%`P1wD)'MwL01
     A10vq8s pC2021 02 23x8ZRgmYbFmo5QEPy2)7egfor=%q(;explanationf^C=\5w4kG?kL01

Station data:
(703) Catalina Sky Survey  (N32.417006 W110.732640)  US/Arizona.  Observers
   T. A. Pruyne, B. M. Africano, E. J. Christensen, G. A. Farneth, D. C.
   Fuls, A. R. Gibbs, A. D. Grauer, H. Gröller, J. A. Johnson, R. A.
   Kowalski, S. M. Larson, G. J. Leonard, D. Rankin, R. L. Seaman, F. C.
   Shelly. 0.68 m Schmidt + 10K CCD.
(807) Cerro Tololo Observatory, La Serena  (S30.169136 W70.805900)  Chile.
(L01) Višnjan Observatory, Tičan  (N45.290900 E13.749300)  Croatia.
   Observers K. Korlević, E. Pettarin. Measurer E. Pettarin. 1.0-m f/2.9
   reflector + CCD.
(T08) ATLAS-MLO, Mauna Loa  (N19.536152 W155.576050)  US/Hawaii.  Observers
   L. Denneau, A. Heinze, H. Weiland, J. Tonry, H. Flewelling, A.
   Fitzsimmons, D. Young, B. Stalder. Measurers L. Denneau, A. Heinze, J.
   Tonry. 0.5-m f/2.0 Schmidt + CCD.

Orbital elements:  A10vq8s
   Perihelion 2021 Jan 8.668479 +/- 0.0383768 TT = 16:02:36 (JD 2459223.168479)
Epoch 2021 Feb 23.0 TT = JDT 2459268.5   Earth MOID: 0.0031   Ve: 0.0945
M  18.15432271 +/- 0.1078561        Ma: 0.0820                AutoNEOCP
n   0.40047900 +/- 0.00204318       Peri.  120.71416 +/- 0.0079963
a   1.82284417 +/- 0.00619972       Node   328.47430 +/- 0.0072252
e   0.5590720 +/- 0.00170986        Incl.    5.04807 +/- 0.0145896
P   2.46/898.91d           H 26.0   G  0.15   U  8.6  
q 0.80374300 +/- 0.000384234    Q 2.84194535 +/- 0.0128172
From 14 observations 2021 Feb. 22-23 (38.3 hr); mean residual 0".51
Residuals in arcseconds: 
210222 703  .81-  1.0-    210222 T08  .10+  .24-    210223 L01  .74-  .71-    
210222 703  .65+  1.4+    210223 807  .24+  .07+    210223 L01  .35-  .12-    
210222 T08  .18-  .06-    210223 807  .36+  .34+    210223 L01  .20+  .57+    
210222 T08  .32+  .04+    210223 807  .33+  .01+    210223 L01  .25-  .27+    
210222 T08  .39-  .63-    210223 L01  .36+  .20-    

Ephemerides (geocentric):
Date (UTC) HH   RA              Dec         delta   r     elong  mag " sig PA
---- -- -- --  -------------   -----------  ------ ------ -----  --- ---- ---
2021 02 24 07  10 46 11.064   -10 47 36.98  .04036 1.0275 159.3 20.1 .793 174
2021 02 24 08  10 46 11.979   -10 45 23.35  .04068 1.0278 159.4 20.1 .837 175
2021 02 24 09  10 46 12.879   -10 43 11.75  .04101 1.0282 159.5 20.1 .883 175
2021 02 24 10  10 46 13.763   -10 41 02.13  .04133 1.0285 159.5 20.2 .928 176
2021 02 24 11  10 46 14.633   -10 38 54.44  .04166 1.0288 159.6 20.2 .974 176
2021 02 24 12  10 46 15.489   -10 36 48.65  .04198 1.0292 159.6 20.2 1.02 176
2021 02 24 13  10 46 16.330   -10 34 44.69  .04231 1.0295 159.7 20.2 1.07 177
2021 02 24 14  10 46 17.157   -10 32 42.54  .04263 1.0298 159.7 20.2 1.11 177
2021 02 24 15  10 46 17.972   -10 30 42.16  .04296 1.0301 159.8 20.2 1.16 177
2021 02 24 16  10 46 18.772   -10 28 43.49  .04328 1.0305 159.8 20.3 1.21 177
2021 02 24 17  10 46 19.560   -10 26 46.51  .04361 1.0308 159.9 20.3 1.25 177
2021 02 24 18  10 46 20.336   -10 24 51.17  .04393 1.0311 159.9 20.3 1.30 178
2021 02 24 19  10 46 21.099   -10 22 57.44  .04426 1.0315 160.0 20.3 1.35 178
2021 02 24 20  10 46 21.850   -10 21 05.29  .04459 1.0318 160.1 20.3 1.40 178
2021 02 24 21  10 46 22.589   -10 19 14.67  .04491 1.0321 160.1 20.3 1.45 178
2021 02 24 22  10 46 23.317   -10 17 25.56  .04524 1.0325 160.2 20.3 1.49 178
2021 02 24 23  10 46 24.034   -10 15 37.92  .04556 1.0328 160.2 20.4 1.54 179
2021 02 25 00  10 46 24.739   -10 13 51.72  .04589 1.0331 160.3 20.4 1.59 179
2021 02 25 01  10 46 25.434   -10 12 06.93  .04621 1.0334 160.3 20.4 1.64 179
2021 02 25 02  10 46 26.118   -10 10 23.52  .04654 1.0338 160.4 20.4 1.68 179
2021 02 25 03  10 46 26.792   -10 08 41.47  .04687 1.0341 160.4 20.4 1.73 179
2021 02 25 04  10 46 27.455   -10 07 00.74  .04719 1.0344 160.5 20.4 1.78 179
2021 02 25 05  10 46 28.109   -10 05 21.30  .04752 1.0348 160.5 20.4 1.83 179
2021 02 25 06  10 46 28.753   -10 03 43.14  .04785 1.0351 160.6 20.5 1.88 179
2021 02 25 07  10 46 29.387   -10 02 06.21  .04817 1.0354 160.6 20.5 1.92 179
2021 02 25 08  10 46 30.012   -10 00 30.51  .04850 1.0358 160.7 20.5 1.97   0
2021 02 25 09  10 46 30.628   -09 58 55.99  .04882 1.0361 160.7 20.5 2.02   0
2021 02 25 10  10 46 31.235   -09 57 22.65  .04915 1.0364 160.7 20.5 2.07   0
2021 02 25 11  10 46 31.833   -09 55 50.45  .04948 1.0368 160.8 20.5 2.11   0
2021 02 25 12  10 46 32.422   -09 54 19.38  .04980 1.0371 160.8 20.5 2.16   0
2021 02 25 13  10 46 33.003   -09 52 49.41  .05013 1.0374 160.9 20.6 2.21   0
2021 02 25 14  10 46 33.576   -09 51 20.52  .05046 1.0378 160.9 20.6 2.25   0
2021 02 25 15  10 46 34.141   -09 49 52.68  .05078 1.0381 161.0 20.6 2.30   0
2021 02 25 16  10 46 34.697   -09 48 25.88  .05111 1.0384 161.0 20.6 2.35   0
2021 02 25 17  10 46 35.246   -09 47 00.11  .05144 1.0388 161.1 20.6 2.39   0
2021 02 25 18  10 46 35.787   -09 45 35.32  .05176 1.0391 161.1 20.6 2.44   0
2021 02 25 19  10 46 36.321   -09 44 11.52  .05209 1.0394 161.2 20.6 2.49   0
2021 02 25 20  10 46 36.847   -09 42 48.68  .05242 1.0398 161.2 20.6 2.53   1
2021 02 25 21  10 46 37.366   -09 41 26.79  .05274 1.0401 161.2 20.7 2.58   1
2021 02 25 22  10 46 37.878   -09 40 05.82  .05307 1.0404 161.3 20.7 2.63   1
2021 02 25 23  10 46 38.383   -09 38 45.75  .05340 1.0408 161.3 20.7 2.67   1
2021 02 26 00  10 46 38.881   -09 37 26.58  .05372 1.0411 161.4 20.7 2.72   1
2021 02 26 01  10 46 39.372   -09 36 08.28  .05405 1.0414 161.4 20.7 2.76   1
2021 02 26 02  10 46 39.857   -09 34 50.84  .05438 1.0418 161.5 20.7 2.81   1
2021 02 26 03  10 46 40.335   -09 33 34.25  .05471 1.0421 161.5 20.7 2.85   1
2021 02 26 04  10 46 40.807   -09 32 18.48  .05503 1.0424 161.5 20.7 2.90   1
2021 02 26 05  10 46 41.273   -09 31 03.53  .05536 1.0428 161.6 20.8 2.94   1
2021 02 26 06  10 46 41.732   -09 29 49.37  .05569 1.0431 161.6 20.8 2.99   1